Weather History for KLFK - February, 2012

Change the Weather History Date:

Wednesday, February 8, 2012

  Actual Average Record
Temperature  
Mean Temperature 49 °F 51 °F  
Max Temperature 60 °F 62 °F 85 °F (1946)
Min Temperature 38 °F 40 °F 10 °F (1933)
Degree Days  
Heating Degree Days 16 14  
Month to date heating degree days 66 116  
Since 1 July heating degree days 1134 1396  
Cooling Degree Days 0 0  
Month to date cooling degree days 15 0  
Year to date cooling degree days 24 8  
Moisture  
Dew Point 38 °F    
Average Humidity 67    
Maximum Humidity 92    
Minimum Humidity 42    
Precipitation  
Precipitation 0.00 in 0.15 in 2.26 in (1956)
Month to date precipitation 0.63 1.11  
Year to date precipitation 5.95 5.29  
Snow  
Snow 0.00 in - - ()
Month to date snowfall 0.0  
Since 1 July snowfall 0.0  
Snow Depth 0.00 in    
Sea Level Pressure  
Sea Level Pressure 30.35 in    
Wind  
Wind Speed 4 mph (North)    
Max Wind Speed 14 mph    
Max Gust Speed 18 mph    
Visibility 8 miles    
Events      
T = Trace of Precipitation, MM = Missing Value Source: NWS Daily Summary

Daily Weather History Graph

Daily Weather History Graph

Search for Another Location

Airport or City:

Trip Planner

Search our weather history database for the weather conditions in past years. The results will help you decide how hot, cold, wet, or windy it might be!

Date:

Astronomy

Feb. 08, 2012 Rise Set
Actual Time 7:06 AM CST 6:00 PM CST
Civil Twilight 6:41 AM CST 6:25 PM CST
Nautical Twilight 6:12 AM CST 6:53 PM CST
Astronomical Twilight 5:44 AM CST 7:22 PM CST
Moon 7:11 PM CST (2/8) 7:17 AM CST (2/8)
Length of Visible Light 11h 43m
Length of Day
10h 53m
Full, 99% of the Moon is Illuminated
Feb 8
Full
Feb 14
Last Quarter
Feb 21
New
Feb 29
First Quarter
Mar 8
Full

Hourly Weather History & Observations

Time (CST) Temp. Windchill Dew Point Humidity Pressure Visibility Wind Dir Wind Speed Gust Speed Precip Events Conditions
12:53 AM 45.0 °F - 41.0 °F 86% 30.32 in 10.0 mi Calm Calm - N/A   Clear
1:53 AM 45.0 °F 43.5 °F 41.0 °F 86% 30.30 in 10.0 mi North 3.5 mph - N/A   Clear
2:53 AM 46.0 °F - 41.0 °F 83% 30.31 in 10.0 mi Calm Calm - N/A   Clear
3:53 AM 43.0 °F - 39.9 °F 89% 30.32 in 9.0 mi Calm Calm - N/A   Clear
4:53 AM 42.1 °F - 39.0 °F 89% 30.34 in 7.0 mi Calm Calm - N/A   Clear
5:18 AM 41.0 °F - 37.4 °F 87% 30.34 in 1.8 mi Calm Calm - N/A   Clear
5:31 AM 41.0 °F - 37.4 °F 87% 30.34 in 3.0 mi Calm Calm - N/A   Clear
5:35 AM 41.0 °F - 37.4 °F 87% 30.35 in 1.8 mi Calm Calm - N/A   Clear
5:43 AM 41.0 °F - 37.4 °F 87% 30.35 in 3.0 mi Calm Calm - N/A   Clear
5:53 AM 39.2 °F 37.0 °F 37.4 °F 93% 30.36 in 5.0 mi NNW 3.5 mph - N/A   Clear
6:53 AM 39.9 °F 37.8 °F 36.0 °F 86% 30.38 in 6.0 mi NNW 3.5 mph - N/A   Clear
7:53 AM 42.1 °F - 39.0 °F 89% 30.40 in 5.0 mi Calm Calm - N/A   Clear
8:53 AM 48.0 °F - 43.0 °F 83% 30.43 in 9.0 mi North 6.9 mph - N/A   Clear
9:53 AM 52.0 °F - 42.1 °F 69% 30.42 in 10.0 mi North 9.2 mph - N/A   Clear
10:53 AM 54.0 °F - 41.0 °F 62% 30.42 in 10.0 mi Variable 6.9 mph - N/A   Clear
11:53 AM 55.9 °F - 39.9 °F 55% 30.41 in 10.0 mi NE 6.9 mph - N/A   Clear
12:53 PM 57.0 °F - 37.9 °F 49% 30.38 in 10.0 mi NNW 6.9 mph - N/A   Scattered Clouds
1:53 PM 60.1 °F - 37.9 °F 44% 30.34 in 10.0 mi Variable 5.8 mph - N/A   Partly Cloudy
2:53 PM 57.9 °F - 36.0 °F 44% 30.32 in 10.0 mi North 9.2 mph - N/A   Scattered Clouds
3:53 PM 57.9 °F - 35.1 °F 42% 30.32 in 10.0 mi North 5.8 mph - N/A   Clear
4:53 PM 55.9 °F - 36.0 °F 47% 30.31 in 10.0 mi North 8.1 mph - N/A   Clear
5:53 PM 54.0 °F - 36.0 °F 51% 30.31 in 10.0 mi North 8.1 mph - N/A   Clear
6:53 PM 51.1 °F - 36.0 °F 56% 30.32 in 10.0 mi Calm Calm - N/A   Clear
7:53 PM 48.0 °F - 37.0 °F 66% 30.33 in 10.0 mi Calm Calm - N/A   Clear
8:53 PM 48.0 °F - 37.0 °F 66% 30.35 in 10.0 mi NNW 3.5 mph - N/A   Clear
9:53 PM 46.9 °F - 37.0 °F 68% 30.35 in 10.0 mi North 6.9 mph - N/A   Clear
10:53 PM 45.0 °F 41.8 °F 37.0 °F 74% 30.35 in 10.0 mi North 5.8 mph - N/A   Clear
11:53 PM 43.0 °F 40.3 °F 36.0 °F 76% 30.34 in 10.0 mi North 4.6 mph - N/A   Clear